Location: Luxembourg
(49.6117°N, 6.1300°E)
Time: 20:43:40
(UTC+01:00)

Envisat - Visible Passes

Search period start: 20 January 2021 00:00
Search period end: 30 January 2021 00:00
Orbit: 764 x 766 km, 98.1° (Epoch: 20 January)

Date Brightness Start Highest point End Pass type
(mag) Time Alt. Az. Time Alt. Az. Time Alt. Az.
20 Jan 5.4 05:21:57 10° NE 05:25:51 22° E 05:29:43 10° SE visible
20 Jan 3.0 07:00:16 10° N 07:05:16 59° WNW 07:10:15 10° SSW visible
20 Jan 5.2 18:19:56 10° SSW 18:24:22 30° W 18:28:49 10° NNW visible
21 Jan 6.3 04:47:45 10° ENE 04:48:31 10° E 04:49:17 10° E visible
21 Jan 3.3 06:23:23 10° NNE 06:28:28 70° ESE 06:33:32 10° S visible
21 Jan 3.7 17:42:20 10° S 17:47:20 60° W 17:52:23 10° NNW visible
22 Jan 4.6 05:46:50 10° NNE 05:51:29 35° E 05:56:07 10° SSE visible
22 Jan 3.5 07:25:53 10° N 07:30:32 37° WNW 07:35:11 10° SW visible
22 Jan 5.9 18:46:33 10° SW 18:50:02 18° W 18:53:34 10° NW visible
23 Jan 5.7 05:10:55 10° NE 05:14:19 18° E 05:17:41 10° SE visible
23 Jan 2.9 06:48:48 10° N 06:53:53 73° WNW 06:58:56 10° SSW visible
23 Jan 4.8 18:08:12 10° SSW 18:12:52 36° W 18:17:34 10° NNW visible
24 Jan 3.7 06:12:01 10° NNE 06:17:03 57° E 06:22:02 10° S visible
24 Jan 6.4 19:14:30 10° W 19:15:50 11° W 19:17:09 10° WNW visible
25 Jan 5.0 05:35:36 10° NE 05:40:00 28° E 05:44:21 10° SSE visible
25 Jan 3.3 07:14:21 10° N 07:19:12 45° WNW 07:24:00 10° SW visible
25 Jan 5.7 18:34:32 10° SW 18:38:30 23° W 18:42:30 10° NW visible
26 Jan 6.0 05:00:03 10° NE 05:02:45 14° E 05:05:26 10° ESE visible
26 Jan 3.0 06:37:22 10° NNE 06:42:29 88° WNW 06:47:35 10° SSW visible
26 Jan 4.4 17:56:32 10° S 18:01:23 45° W 18:06:17 10° NNW visible
27 Jan 4.1 06:00:40 10° NNE 06:05:35 46° E 06:10:27 10° S visible
27 Jan 6.1 19:01:40 10° WSW 19:04:14 14° W 19:06:49 10° NW visible
28 Jan 5.3 05:24:26 10° NE 05:28:28 23° E 05:32:29 10° SE visible
28 Jan 3.1 07:02:52 10° N 07:07:50 55° WNW 07:12:47 10° SSW visible
28 Jan 5.3 18:22:39 10° SSW 18:26:59 28° W 18:31:20 10° NW visible
29 Jan 6.2 04:49:36 10° ENE 04:51:10 11° E 04:52:43 10° ESE visible
29 Jan 3.2 06:25:57 10° NNE 06:31:04 76° ESE 06:36:09 10° S visible
